Weather History for Albertville, AL

Change the Weather History Date:

Friday, October 26, 2012

  Actual Average (KGAD) Record (KGAD)
Temperature  
Mean Temperature 64 °F -  
Max Temperature 78 °F 70 °F 87 °F (1940)
Min Temperature 51 °F 44 °F 28 °F (2013)
Growing Degree Days 14 (Base 50)    
Moisture  
Dew Point 58 °F    
Average Humidity 77    
Maximum Humidity 100    
Minimum Humidity 47    
Precipitation  
Precipitation 0.00 in - - ()
Sea Level Pressure  
Sea Level Pressure 30.00 in    
Wind  
Wind Speed 4 mph (NE)    
Max Wind Speed 13 mph    
Max Gust Speed 18 mph    
Visibility 10 miles    
Events      
Averages and records for this station are not official NWS values.
T = Trace of Precipitation, MM = Missing Value Source: NWS Daily Summary

Daily Weather History Graph

Daily Weather History Graph

Search for Another Location

Airport:

Trip Planner

Search our weather history database for the weather conditions in past years. The results will help you decide how hot, cold, wet, or windy it might be!

Date:

Astronomy

Oct. 26, 2012 Rise Set
Actual Time 6:59 AM CDT 5:57 PM CDT
Civil Twilight 6:34 AM CDT 6:23 PM CDT
Nautical Twilight 6:04 AM CDT 6:52 PM CDT
Astronomical Twilight 5:35 AM CDT 7:21 PM CDT
Moon 4:07 PM CDT (10/26) 4:02 AM CDT (10/26)
Length of Visible Light 11h 48m
Length of Day
10h 57m
Waxing Gibbous, 91% of the Moon is Illuminated
Oct 26
Waxing Gibbous
Oct 29
Full
Nov 6
Last Quarter
Nov 13
New
Nov 20
First Quarter

Hourly Weather History & Observations

Time (CDT) Temp. Dew Point Humidity Pressure Visibility Wind Dir Wind Speed Gust Speed Precip Events Conditions
12:15 AM 60.8 °F 55.4 °F 82% 30.02 in 10.0 mi East 4.6 mph - N/A   Unknown
12:35 AM 62.6 °F 55.4 °F 77% 30.02 in 10.0 mi ESE 4.6 mph - N/A   Unknown
12:55 AM 62.6 °F 55.4 °F 77% 30.02 in 10.0 mi East 3.5 mph - N/A   Unknown
1:15 AM 60.8 °F 55.4 °F 82% 30.02 in 10.0 mi East 3.5 mph - N/A   Unknown
1:55 AM 60.8 °F 55.4 °F 82% 30.01 in 10.0 mi East 4.6 mph - N/A   Unknown
2:15 AM 60.8 °F 55.4 °F 82% 30.01 in 10.0 mi East 4.6 mph - N/A   Unknown
2:55 AM 60.8 °F 55.4 °F 82% 30.01 in 10.0 mi East 5.8 mph - N/A   Unknown
3:15 AM 62.6 °F 55.4 °F 77% 30.01 in 10.0 mi East 4.6 mph - N/A   Unknown
3:35 AM 60.8 °F 55.4 °F 82% 30.01 in 10.0 mi East 5.8 mph - N/A   Unknown
3:55 AM 60.8 °F 55.4 °F 82% 30.01 in 10.0 mi East 5.8 mph - N/A   Unknown
4:15 AM 60.8 °F 55.4 °F 82% 30.01 in 10.0 mi East 4.6 mph - N/A   Unknown
4:35 AM 60.8 °F 55.4 °F 82% 30.01 in 10.0 mi East 4.6 mph - N/A   Unknown
4:55 AM 60.8 °F 55.4 °F 82% 30.02 in 10.0 mi East 4.6 mph - N/A   Unknown
5:15 AM 60.8 °F 55.4 °F 82% 30.02 in 10.0 mi East 3.5 mph - N/A   Unknown
5:35 AM 60.8 °F 57.2 °F 88% 30.02 in 10.0 mi Calm Calm - N/A   Unknown
5:55 AM 60.8 °F 59.0 °F 94% 30.02 in 10.0 mi Calm Calm - N/A   Unknown
6:15 AM 60.8 °F 60.8 °F 100% 30.03 in 10.0 mi Calm Calm - N/A   Unknown
6:35 AM 60.8 °F 60.8 °F 100% 30.03 in 10.0 mi Calm Calm - N/A   Unknown
6:55 AM 59.0 °F 59.0 °F 100% 30.03 in 10.0 mi East 3.5 mph - N/A   Unknown
7:15 AM 59.0 °F 59.0 °F 100% 30.04 in 10.0 mi East 3.5 mph - N/A   Unknown
7:35 AM 59.0 °F 59.0 °F 100% 30.04 in 10.0 mi Calm Calm - N/A   Unknown
8:15 AM 62.6 °F 62.6 °F 100% 30.05 in 10.0 mi Calm Calm - N/A   Unknown
8:35 AM 64.4 °F 64.4 °F 100% 30.05 in 10.0 mi East 4.6 mph - N/A   Unknown
8:55 AM 66.2 °F 64.4 °F 94% 30.06 in 10.0 mi ESE 4.6 mph - N/A   Unknown
9:15 AM 68.0 °F 66.2 °F 94% 30.06 in 10.0 mi SE 6.9 mph - N/A   Unknown
9:35 AM 69.8 °F 66.2 °F 88% 30.07 in 10.0 mi ESE 3.5 mph - N/A   Unknown
9:55 AM 69.8 °F 60.8 °F 73% 30.07 in 10.0 mi East 3.5 mph - N/A   Unknown
10:15 AM 71.6 °F 62.6 °F 73% 30.07 in 10.0 mi Calm Calm - N/A   Unknown
10:35 AM 73.4 °F 60.8 °F 65% 30.07 in 10.0 mi East 3.5 mph - N/A   Unknown
11:15 AM 73.4 °F 60.8 °F 65% 30.06 in 10.0 mi SSE 4.6 mph - N/A   Unknown
11:35 AM 73.4 °F 62.6 °F 69% 30.06 in 10.0 mi ESE 4.6 mph - N/A   Unknown
11:55 AM 73.4 °F 60.8 °F 65% 30.05 in 10.0 mi ESE 4.6 mph - N/A   Unknown
12:15 PM 75.2 °F 60.8 °F 61% 30.03 in 10.0 mi South 3.5 mph - N/A   Unknown
12:35 PM 75.2 °F 60.8 °F 61% 30.02 in 10.0 mi Calm Calm - N/A   Unknown
12:55 PM 73.4 °F 60.8 °F 65% 30.01 in 10.0 mi Calm Calm - N/A   Unknown
1:15 PM 77.0 °F 59.0 °F 54% 30.00 in 10.0 mi Calm Calm - N/A   Unknown
1:35 PM 77.0 °F 60.8 °F 57% 29.99 in 10.0 mi Calm Calm - N/A   Unknown
1:55 PM 77.0 °F 59.0 °F 54% 29.99 in 10.0 mi Calm Calm - N/A   Unknown
2:15 PM 78.8 °F 59.0 °F 51% 29.97 in 10.0 mi Calm Calm - N/A   Unknown
2:35 PM 78.8 °F 57.2 °F 47% 29.97 in 10.0 mi North 3.5 mph - N/A   Unknown
2:55 PM 75.2 °F 60.8 °F 61% 29.96 in 10.0 mi North 6.9 mph - N/A   Unknown
3:15 PM 75.2 °F 59.0 °F 57% 29.95 in 10.0 mi North 4.6 mph - N/A   Unknown
3:35 PM 73.4 °F 60.8 °F 65% 29.94 in 10.0 mi Calm Calm - N/A   Unknown
3:55 PM 73.4 °F 60.8 °F 65% 29.94 in 10.0 mi Calm Calm - N/A   Unknown
4:15 PM 73.4 °F 60.8 °F 65% 29.94 in 10.0 mi Calm Calm - N/A   Unknown
4:35 PM 73.4 °F 60.8 °F 65% 29.94 in 10.0 mi NW 5.8 mph - N/A   Unknown
4:55 PM 73.4 °F 60.8 °F 65% 29.94 in 10.0 mi NW 4.6 mph - N/A   Unknown
5:15 PM 73.4 °F 59.0 °F 61% 29.94 in 10.0 mi NNW 4.6 mph - N/A   Unknown
5:35 PM 71.6 °F 59.0 °F 64% 29.95 in 10.0 mi North 4.6 mph - N/A   Unknown
5:55 PM 71.6 °F 60.8 °F 69% 29.95 in 10.0 mi North 5.8 mph - N/A   Unknown
6:15 PM 69.8 °F 60.8 °F 73% 29.95 in 10.0 mi North 4.6 mph - N/A   Unknown
6:35 PM 69.8 °F 60.8 °F 73% 29.95 in 10.0 mi North 3.5 mph - N/A   Unknown
6:55 PM 69.8 °F 60.8 °F 73% 29.95 in 10.0 mi NNW 4.6 mph - N/A   Unknown
7:15 PM 69.8 °F 60.8 °F 73% 29.95 in 10.0 mi NNW 6.9 mph - N/A   Unknown
7:35 PM 68.0 °F 59.0 °F 73% 29.96 in 10.0 mi NNW 12.7 mph 18.4 mph N/A   Unknown
7:55 PM 64.4 °F 55.4 °F 73% 29.96 in 10.0 mi NNW 9.2 mph - N/A   Unknown
8:15 PM 62.6 °F 53.6 °F 72% 29.97 in 10.0 mi NNW 11.5 mph - N/A   Unknown
8:55 PM 60.8 °F 51.8 °F 72% 29.99 in 10.0 mi NNW 6.9 mph - N/A   Unknown
9:15 PM 59.0 °F 51.8 °F 77% 29.99 in 10.0 mi NW 8.1 mph - N/A   Unknown
9:35 PM 55.4 °F 50.0 °F 82% 30.00 in 10.0 mi NNW 10.4 mph - N/A   Unknown
10:15 PM 55.4 °F 50.0 °F 82% 30.00 in 10.0 mi NNW 5.8 mph - N/A   Unknown
10:35 PM 53.6 °F 50.0 °F 88% 30.00 in 10.0 mi NW 8.1 mph - N/A   Unknown
10:55 PM 53.6 °F 51.8 °F 94% 30.00 in 10.0 mi North 9.2 mph - N/A   Unknown
11:15 PM 51.8 °F 51.8 °F 100% 30.00 in 10.0 mi North 6.9 mph - N/A   Unknown
11:35 PM 51.8 °F 51.8 °F 100% 30.00 in 10.0 mi NNW 9.2 mph - N/A   Unknown
11:55 PM 51.8 °F 51.8 °F 100% 29.99 in 10.0 mi NNW 6.9 mph - N/A   Unknown